Sturgis, MI

1:32 AM EST on December 06, 2019 (GMT -0500)
Kirsch Municipal

Weather History for KIRS - October, 2019

Change the Weather History Date:

Friday, October 11, 2019

  Actual Average (KHAI) Record (KHAI)
Temperature  
Mean Temperature 56 °F -  
Max Temperature 68 °F 63 °F 127 °F (2006)
Min Temperature 44 °F 40 °F 23 °F (1964)
Degree Days  
Heating Degree Days 9    
Growing Degree Days 6 (Base 50)    
Moisture  
Dew Point 56 °F    
Average Humidity 82    
Maximum Humidity 89    
Minimum Humidity 67    
Precipitation  
Precipitation 0.24 in - - ()
Sea Level Pressure  
Sea Level Pressure 29.94 in    
Wind  
Wind Speed 10 mph ()    
Max Wind Speed 18 mph    
Max Gust Speed 24 mph    
Visibility 9.1 miles    
Events Rain    
Averages and records for this station are not official NWS values.
T = Trace of Precipitation, MM = Missing Value Source: Averaged Metar Reports

Daily Weather History Graph

Daily Weather History Graph

Search for Another Location

Airport or City:

Astronomy

Oct. 11, 2019 Rise Set
Actual Time 7:49 AM EDT 7:07 PM EDT
Civil Twilight 7:21 AM EDT 7:34 PM EDT
Nautical Twilight 6:49 AM EDT 8:07 PM EDT
Astronomical Twilight 6:16 AM EDT 8:39 PM EDT
Moon 6:38 PM EDT (10/11) 5:25 AM EDT (10/11)
Length of Visible Light 12h 13m
Length of Day
11h 17m
Waxing Gibbous, 96% of the Moon is Illuminated
Oct 11
Waxing Gibbous
Oct 13
Full
Oct 21
Last Quarter
Oct 27
New
Nov 4
First Quarter

Hourly Weather History & Observations

Time (EDT) Temp. Windchill Dew Point Humidity Pressure Visibility Wind Dir Wind Speed Gust Speed Precip Events Conditions
12:15 AM 63.9 °F - 54.5 °F 72% 30.04 in 10.0 mi SE 8.1 mph - N/A   Mostly Cloudy
12:35 AM 64.4 °F - 54.5 °F 70% 30.03 in 10.0 mi SE 9.2 mph 16.1 mph N/A   Overcast
12:40 AM 64.2 °F - 54.5 °F 71% 30.03 in 10.0 mi SE 9.2 mph 16.1 mph N/A   Mostly Cloudy
12:58 AM 64.4 °F - 54.7 °F 71% 30.03 in 10.0 mi SE 8.1 mph - N/A   Scattered Clouds
1:16 AM 64.4 °F - 54.7 °F 71% 30.03 in 10.0 mi SE 11.5 mph - N/A   Scattered Clouds
1:35 AM 64.6 °F - 54.9 °F 71% 30.02 in 10.0 mi SE 10.4 mph 16.1 mph N/A   Scattered Clouds
1:36 AM 64.6 °F - 54.9 °F 71% 30.02 in 10.0 mi SE 8.1 mph 16.1 mph N/A   Scattered Clouds
1:55 AM 64.6 °F - 55.0 °F 71% 30.02 in 10.0 mi SE 9.2 mph - N/A   Mostly Cloudy
1:56 AM 64.6 °F - 55.0 °F 71% 30.02 in 10.0 mi SE 9.2 mph - N/A   Mostly Cloudy
2:19 AM 64.4 °F - 55.4 °F 73% 30.02 in 10.0 mi SE 9.2 mph - N/A   Drizzle
2:37 AM 64.4 °F - 55.9 °F 74% 30.01 in 10.0 mi SE 9.2 mph 16.1 mph N/A   Drizzle
2:55 AM 64.4 °F - 56.1 °F 74% 30.00 in 10.0 mi SE 9.2 mph - N/A   Overcast
3:15 AM 65.1 °F - 55.6 °F 71% 29.99 in 10.0 mi SSE 9.2 mph - N/A   Overcast
3:16 AM 65.3 °F - 55.6 °F 71% 29.99 in 10.0 mi SSE 9.2 mph - N/A   Overcast
3:35 AM 65.1 °F - 55.4 °F 71% 29.99 in 10.0 mi SSE 9.2 mph - N/A   Overcast
3:40 AM 65.3 °F - 55.4 °F 70% 29.98 in 10.0 mi SSE 9.2 mph - N/A   Overcast
3:58 AM 65.3 °F - 55.4 °F 70% 29.98 in 10.0 mi SSE 9.2 mph - N/A   Overcast
4:16 AM 65.8 °F - 55.4 °F 69% 29.98 in 10.0 mi SSE 9.2 mph - N/A   Overcast
4:35 AM 66.2 °F - 55.0 °F 67% 29.98 in 10.0 mi SSE 9.2 mph - N/A   Overcast
4:36 AM 66.2 °F - 55.0 °F 67% 29.98 in 10.0 mi SSE 9.2 mph - N/A   Overcast
4:55 AM 66.2 °F - 55.4 °F 68% 29.98 in 10.0 mi SSE 11.5 mph - N/A   Overcast
4:56 AM 66.2 °F - 55.4 °F 68% 29.98 in 10.0 mi SSE 10.4 mph - N/A   Overcast
5:19 AM 64.0 °F - 57.4 °F 79% 29.97 in 7.0 mi SE 9.2 mph - 0.05 in Rain Rain
5:37 AM 63.5 °F - 58.5 °F 84% 29.96 in 10.0 mi SE 10.4 mph 17.3 mph 0.05 in Rain Light Rain
5:55 AM 63.5 °F - 59.2 °F 86% 29.96 in 10.0 mi SE 12.7 mph - 0.06 in   Overcast
5:56 AM 63.5 °F - 59.2 °F 86% 29.96 in 10.0 mi SE 12.7 mph - 0.06 in   Overcast
6:15 AM 63.5 °F - 58.5 °F 84% 29.96 in 10.0 mi SE 9.2 mph - N/A   Overcast
6:16 AM 63.5 °F - 58.5 °F 84% 29.96 in 10.0 mi SE 9.2 mph - N/A   Overcast
6:35 AM 63.7 °F - 58.5 °F 83% 29.96 in 10.0 mi SE 9.2 mph - N/A   Overcast
6:40 AM 63.7 °F - 58.5 °F 83% 29.96 in 10.0 mi SE 9.2 mph - N/A   Overcast
6:58 AM 63.7 °F - 58.3 °F 83% 29.96 in 10.0 mi SE 10.4 mph - N/A   Overcast
7:16 AM 63.7 °F - 58.3 °F 83% 29.96 in 10.0 mi SSE 8.1 mph - N/A   Mostly Cloudy
7:35 AM 63.5 °F - 58.1 °F 83% 29.96 in 10.0 mi SSE 9.2 mph - N/A   Scattered Clouds
7:36 AM 63.5 °F - 58.1 °F 83% 29.96 in 10.0 mi SSE 9.2 mph - N/A   Scattered Clouds
7:55 AM 63.7 °F - 58.1 °F 82% 29.97 in 10.0 mi SSE 8.1 mph - N/A   Overcast
7:56 AM 63.7 °F - 58.1 °F 82% 29.97 in 10.0 mi SE 6.9 mph - N/A   Overcast
8:19 AM 63.9 °F - 58.1 °F 81% 29.96 in 10.0 mi SE 8.1 mph - N/A   Overcast
8:38 AM 64.0 °F - 57.7 °F 80% 29.96 in 10.0 mi SSE 8.1 mph - N/A   Overcast
8:55 AM 64.4 °F - 57.9 °F 79% 29.96 in 10.0 mi SSE 11.5 mph 16.1 mph N/A   Overcast
9:15 AM 64.0 °F - 58.6 °F 83% 29.95 in 10.0 mi SSE 9.2 mph - N/A   Overcast
9:16 AM 64.0 °F - 58.8 °F 83% 29.95 in 10.0 mi SSE 9.2 mph - N/A   Overcast
9:35 AM 63.9 °F - 59.2 °F 85% 29.95 in 10.0 mi SSE 11.5 mph - N/A   Light Drizzle
9:36 AM 63.9 °F - 59.2 °F 85% 29.95 in 10.0 mi SSE 12.7 mph - N/A   Light Drizzle
9:59 AM 64.4 °F - 59.7 °F 85% 29.94 in 10.0 mi SSE 10.4 mph - N/A   Overcast
10:17 AM 64.6 °F - 60.1 °F 85% 29.94 in 10.0 mi SSE 9.2 mph - N/A   Overcast
10:35 AM 64.8 °F - 60.3 °F 85% 29.94 in 10.0 mi SSE 8.1 mph - N/A Rain Light Rain
10:36 AM 64.8 °F - 60.4 °F 86% 29.94 in 10.0 mi SSE 9.2 mph - N/A Rain Light Rain
10:55 AM 64.6 °F - 60.1 °F 85% 29.94 in 10.0 mi SSE 9.2 mph - N/A Rain Rain
11:15 AM 64.6 °F - 59.9 °F 85% 29.94 in 10.0 mi SSE 9.2 mph - N/A Rain Rain
11:38 AM 64.6 °F - 60.4 °F 86% 29.93 in 10.0 mi SSE 10.4 mph - N/A Rain Light Rain
11:56 AM 64.8 °F - 61.0 °F 88% 29.92 in 10.0 mi SSE 9.2 mph - 0.02 in Rain Light Rain
12:15 PM 65.5 °F - 61.7 °F 88% 29.91 in 10.0 mi SSE 10.4 mph - N/A Rain Light Rain
12:16 PM 65.5 °F - 61.7 °F 88% 29.91 in 10.0 mi SSE 11.5 mph - N/A Rain Light Rain
12:35 PM 66.2 °F - 62.1 °F 86% 29.90 in 10.0 mi SSE 10.4 mph - N/A   Drizzle
12:59 PM 66.6 °F - 62.6 °F 87% 29.88 in 10.0 mi SSE 10.4 mph - 0.01 in Rain Light Rain
1:17 PM 67.1 °F - 62.6 °F 85% 29.87 in 10.0 mi SSE 9.2 mph - N/A   Light Drizzle
1:35 PM 67.1 °F - 62.8 °F 86% 29.87 in 10.0 mi SSE 10.4 mph - N/A   Light Drizzle
1:55 PM 67.6 °F - 63.0 °F 85% 29.86 in 10.0 mi South 13.8 mph 19.6 mph N/A   Drizzle
1:56 PM 67.6 °F - 63.0 °F 85% 29.86 in 10.0 mi South 13.8 mph 19.6 mph N/A   Drizzle
2:15 PM 67.6 °F - 62.8 °F 84% 29.86 in 10.0 mi South 11.5 mph 17.3 mph N/A Rain Rain
2:20 PM 67.6 °F - 63.1 °F 85% 29.86 in 10.0 mi South 12.7 mph - N/A   Light Drizzle
2:38 PM 68.0 °F - 63.5 °F 85% 29.85 in 10.0 mi South 11.5 mph - N/A   Overcast
2:56 PM 68.4 °F - 63.5 °F 84% 29.84 in 10.0 mi South 12.7 mph 18.4 mph N/A   Overcast
3:15 PM 68.7 °F - 63.3 °F 83% 29.84 in 10.0 mi South 15.0 mph 20.7 mph N/A   Overcast
3:35 PM 68.5 °F - 63.3 °F 83% 29.84 in 10.0 mi South 11.5 mph 17.3 mph N/A   Overcast
3:36 PM 68.7 °F - 63.3 °F 83% 29.84 in 10.0 mi South 11.5 mph 17.3 mph N/A   Overcast
3:58 PM 68.9 °F - 63.1 °F 82% 29.83 in 10.0 mi South 10.4 mph - N/A   Overcast
4:17 PM 68.2 °F - 63.5 °F 85% 29.82 in 4.0 mi South 11.5 mph 18.4 mph 0.02 in Rain Heavy Rain
4:35 PM 67.8 °F - 63.9 °F 87% 29.81 in 7.0 mi South 10.4 mph - 0.05 in Rain Light Rain
4:55 PM 67.8 °F - 63.5 °F 86% 29.82 in 4.0 mi WSW 11.5 mph - 0.09 in Rain Heavy Rain
4:56 PM 67.6 °F - 63.7 °F 87% 29.82 in 4.0 mi WSW 10.4 mph - 0.09 in Rain Heavy Rain
5:15 PM 64.8 °F - 61.3 °F 89% 29.82 in 10.0 mi West 10.4 mph - N/A   Overcast
5:20 PM 64.6 °F - 61.2 °F 89% 29.83 in 10.0 mi West 9.2 mph - N/A   Overcast
5:38 PM 62.6 °F - 59.0 °F 88% 29.84 in 10.0 mi West 11.5 mph - N/A Rain Rain
5:56 PM 61.9 °F - 58.5 °F 89% 29.84 in 10.0 mi WNW 12.7 mph 18.4 mph N/A   Light Drizzle
6:15 PM 56.1 °F - 52.3 °F 87% 29.85 in 7.0 mi NW 18.4 mph 24.2 mph N/A Rain Light Rain
6:16 PM 55.8 °F - 52.2 °F 88% 29.86 in 7.0 mi NW 17.3 mph 24.2 mph N/A Rain Rain
6:35 PM 53.8 °F - 50.5 °F 89% 29.88 in 4.0 mi WNW 12.7 mph 20.7 mph 0.01 in Rain Rain
6:36 PM 53.8 °F - 50.5 °F 89% 29.88 in 4.0 mi WNW 10.4 mph 20.7 mph 0.01 in Rain Rain
6:59 PM 52.2 °F - 48.7 °F 88% 29.89 in 7.0 mi WNW 12.7 mph 20.7 mph 0.03 in Rain Light Rain
7:16 PM 50.2 °F - 46.6 °F 87% 29.90 in 7.0 mi WNW 12.7 mph 19.6 mph N/A   Drizzle
7:35 PM 49.1 °F - 45.5 °F 87% 29.92 in 5.0 mi WNW 11.5 mph 20.7 mph N/A Rain Rain
7:36 PM 49.1 °F - 45.5 °F 87% 29.92 in 5.0 mi West 11.5 mph 20.7 mph N/A Rain Heavy Rain
7:55 PM 48.4 °F - 45.1 °F 89% 29.93 in 4.0 mi West 12.7 mph 21.9 mph 0.01 in   Heavy Drizzle
7:56 PM 48.2 °F - 45.0 °F 89% 29.93 in 4.0 mi West 15.0 mph 21.9 mph 0.01 in   Heavy Drizzle
8:15 PM 48.0 °F - 44.8 °F 89% 29.94 in 4.0 mi West 13.8 mph 23.0 mph N/A   Drizzle
8:37 PM 47.7 °F - 44.6 °F 89% 29.95 in 4.0 mi West 13.8 mph 21.9 mph N/A Rain Light Rain
8:56 PM 47.3 °F - 44.1 °F 88% 29.97 in 4.0 mi West 13.8 mph - N/A   Drizzle
9:15 PM 46.9 °F - 43.7 °F 88% 29.97 in 7.0 mi West 10.4 mph 19.6 mph N/A Rain Light Rain
9:16 PM 46.9 °F - 43.7 °F 88% 29.97 in 10.0 mi West 10.4 mph - N/A Rain Light Rain
9:35 PM 46.4 °F 41.1 °F 42.8 °F 87% 29.98 in 7.0 mi West 11.5 mph 17.3 mph 0.02 in Rain Light Rain
9:59 PM 46.0 °F 41.9 °F 42.8 °F 88% 29.97 in 10.0 mi West 8.1 mph - 0.02 in Rain Light Rain
10:17 PM 45.7 °F 40.6 °F 42.4 °F 88% 29.99 in 10.0 mi West 10.4 mph - N/A   Overcast
10:35 PM 45.5 °F 39.2 °F 41.5 °F 86% 29.99 in 10.0 mi West 13.8 mph 18.4 mph N/A   Overcast
10:36 PM 45.5 °F 39.6 °F 41.5 °F 86% 29.99 in 10.0 mi West 12.7 mph 18.4 mph N/A   Overcast
10:55 PM 45.5 °F 40.3 °F 41.4 °F 85% 29.99 in 10.0 mi West 10.4 mph 17.3 mph N/A   Overcast
11:15 PM 45.0 °F 39.3 °F 41.0 °F 86% 29.99 in 10.0 mi West 11.5 mph 16.1 mph N/A   Overcast
11:38 PM 44.6 °F 39.7 °F 40.3 °F 85% 29.99 in 10.0 mi West 9.2 mph - N/A   Overcast
11:56 PM 44.2 °F 38.4 °F 37.8 °F 78% 30.00 in 10.0 mi West 11.5 mph 19.6 mph N/A   Overcast